Location: Palmerston North
(40.3500°S, 175.6170°E)
Time: 09:22:43
(UTC+13:00)

Nimbus 7 Rocket - Pass Details

Date: 24 January 2019
Orbit: 922 x 966 km, 99.5° (Epoch: 19 February)

Event Time Altitude Azimuth Distance (km) Brightness Sun altitude
Exits shadow 22:38:52 29° 27° (NNE) 1,634 5.1 -18.4°
Maximum altitude 22:42:01 75° 107° (ESE) 978 4.4 -18.8°
Drops below altitude 10° 22:48:02 10° 191° (S) 2,694 7.7 -19.6°
Sets 22:50:30 0° 192° (SSW) 3,652 8.6 -19.9°
